sat.trackr.live / text

‹ back to catalog

STARLINK-4526

NORAD 53438 · 2022-097BC

PAYLOAD ACTIVE UNKNOWN

§ Identity

Operator
Country
US
Launch date
2022-08-10
Launch site
AFETR
Launch vehicle
Mass (kg)
RCS (m²)

Purposes: comms

External: N2YO · Heavens-Above · Gunter

§ Orbital elements

Epoch: 2026-09-19T03:05:33.349344Z

Period
93.85 min
Inclination
53.1603°
Eccentricity
0.0001206
Mean motion
15.34390582 rev/d
Perigee alt
461.9 km
Apogee alt
463.6 km
Semi-major
6,840.9 km
B*
2.5203e-5
RAAN
299.8548°
Arg perigee
67.6323°
Mean anomaly
292.4807°
Rev number
22,821

§ Raw data

STARLINK-45261 53438U 22097BC  26262.12885821  .00000475  00000+0  25203-4 0  99972 53438  53.1603 299.8548 0001206  67.6323 292.4807 15.34390582228211

JSON: /api/v1/satellites/53438 · /tle

For live sub-satellite position, see the globe view (requires WebGL).

§ Visibility from observer

Set your observer location to see the next 7 days of passes ≥ 10°. The values pass through the URL so the page stays shareable.

No JS? Fill the form by hand. The geolocation button needs JavaScript.